GW1238 Weather Reports


time (UTC)temp
C
wind
direction
speed
KPH
gust
KPH
rain 1hr
cm
rain 24hr
cm
rain mn
cm
humidity
%
barometer
mb
20260504233249 23 198 11.3 17.7 0.00 0.00 0.00 56 1016.1
20260504232746 23 222 6.4 14.5 0.00 0.00 0.00 59 1016.1
20260504232243 23 189 14.5 17.7 0.00 0.00 0.00 60 1016.0
20260504231740 23 189 12.9 16.1 0.00 0.00 0.00 56 1016.0
20260504231236 24 186 14.5 16.1 0.00 0.00 0.00 59 1016.0
20260504230732 24 175 12.9 17.7 0.00 0.00 0.00 56 1016.2
20260504230231 24 183 11.3 16.1 0.00 0.00 0.00 60 1016.1
20260504225729 24 184 12.9 14.5 0.00 0.00 0.00 55 1016.1
20260504225225 24 168 14.5 16.1 0.00 0.00 0.00 54 1016.1
20260504224722 24 169 17.7 20.9 0.00 0.00 0.00 55 1015.9
20260504224220 24 163 16.1 22.5 0.00 0.00 0.00 56 1016.0
20260504223716 24 195 8.0 17.7 0.00 0.00 0.00 53 1015.9
20260504223211 25 175 14.5 14.5 0.00 0.00 0.00 56 1016.0
20260504222709 24 161 16.1 17.7 0.00 0.00 0.00 57 1016.0
20260504222206 25 175 16.1 17.7 0.00 0.00 0.00 55 1015.9
20260504221703 25 179 12.9 16.1 0.00 0.00 0.00 56 1016.0
20260504221200 25 181 11.3 14.5 0.00 0.00 0.00 55 1016.1
20260504220656 24 187 14.5 16.1 0.00 0.00 0.00 58 1016.1
20260504220154 24 201 6.4 11.3 0.00 0.00 0.00 53 1016.0
20260504215650 25 182 6.4 12.9 0.00 0.00 0.00 59 1016.1
20260504215148 25 206 9.7 11.3 0.00 0.00 0.00 60 1015.9
20260504214643 25 172 9.7 12.9 0.00 0.00 0.00 55 1016.0
20260504214140 25 173 11.3 16.1 0.00 0.00 0.00 55 1016.0
20260504213636 25 152 11.3 16.1 0.00 0.00 0.00 58 1016.1
20260504213133 25 169 8.0 11.3 0.00 0.00 0.00 54 1015.9
20260504212630 25 178 12.9 12.9 0.00 0.00 0.00 53 1015.9
20260504212127 25 161 14.5 14.5 0.00 0.00 0.00 56 1016.0
20260504211624 25 164 11.3 12.9 0.00 0.00 0.00 53 1016.1
20260504211120 25 187 9.7 12.9 0.00 0.00 0.00 53 1016.0
20260504210618 25 177 3.2 11.3 0.00 0.00 0.00 56 1016.1
20260504210114 25 185 3.2 6.4 0.00 0.00 0.00 51 1016.2
20260504205612 25 202 6.4 12.9 0.00 0.00 0.00 51 1016.3
20260504205110 25 180 8.0 11.3 0.00 0.00 0.00 50 1016.4
20260504204608 26 177 4.8 9.7 0.00 0.00 0.00 50 1016.3
20260504204106 25 187 9.7 12.9 0.00 0.00 0.00 55 1016.4
20260504203605 25 186 3.2 6.4 0.00 0.00 0.00 50 1016.3
20260504203102 25 175 6.4 9.7 0.00 0.00 0.00 51 1016.5
20260504202556 25 181 6.4 12.9 0.00 0.00 0.00 49 1016.4
20260504202054 25 176 12.9 14.5 0.00 0.00 0.00 55 1016.5
20260504201551 26 184 6.4 6.4 0.00 0.00 0.00 52 1016.5
20260504201049 25 207 6.4 9.7 0.00 0.00 0.00 52 1016.5
20260504200544 25 197 6.4 9.7 0.00 0.00 0.00 51 1016.9
20260504200042 25 254 4.8 9.7 0.00 0.00 0.00 50 1016.7
20260504195538 25 165 8.0 11.3 0.00 0.00 0.00 52 1016.8
20260504195034 26 156 0.0 1.6 0.00 0.00 0.00 48 1016.8
20260504194531 25 199 6.4 11.3 0.00 0.00 0.00 49 1016.9
20260504194026 25 196 6.4 9.7 0.00 0.00 0.00 51 1017.0
20260504193523 24 192 6.4 11.3 0.00 0.00 0.00 54 1017.0
20260504193022 25 189 8.0 9.7 0.00 0.00 0.00 52 1017.2
20260504192520 25 183 6.4 9.7 0.00 0.00 0.00 51 1017.4
20260504192018 25 161 3.2 14.5 0.00 0.00 0.00 47 1017.5
20260504191515 25 216 3.2 6.4 0.00 0.00 0.00 49 1017.4
20260504191011 24 185 4.8 12.9 0.00 0.00 0.00 50 1017.6
20260504190507 25 176 1.6 6.4 0.00 0.00 0.00 50 1017.6
20260504190003 24 182 4.8 6.4 0.00 0.00 0.00 50 1017.6
20260504185501 24 181 9.7 11.3 0.00 0.00 0.00 51 1017.6
20260504184957 24 159 3.2 11.3 0.00 0.00 0.00 49 1017.8
20260504184453 24 184 3.2 6.4 0.00 0.00 0.00 50 1017.6
20260504183948 24 164 4.8 9.7 0.00 0.00 0.00 51 1017.8
20260504183446 23 183 6.4 11.3 0.00 0.00 0.00 50 1017.9
20260504182944 24 187 9.7 11.3 0.00 0.00 0.00 57 1018.0
20260504182440 24 184 4.8 9.7 0.00 0.00 0.00 52 1017.9
20260504181938 24 167 4.8 6.4 0.00 0.00 0.00 51 1018.0
20260504181435 24 187 6.4 11.3 0.00 0.00 0.00 51 1018.2
20260504180933 23 187 6.4 9.7 0.00 0.00 0.00 51 1018.1
20260504180432 23 193 6.4 9.7 0.00 0.00 0.00 53 1018.2
20260504175930 23 203 6.4 11.3 0.00 0.00 0.00 51 1018.2
20260504175426 24 195 9.7 12.9 0.00 0.00 0.00 55 1018.2
20260504174924 23 180 4.8 4.8 0.00 0.00 0.00 51 1018.3
20260504174422 23 177 4.8 11.3 0.00 0.00 0.00 51 1018.3
20260504173919 23 174 4.8 12.9 0.00 0.00 0.00 52 1018.5
20260504173415 23 185 14.5 16.1 0.00 0.00 0.00 58 1018.4
20260504172913 23 192 8.0 9.7 0.00 0.00 0.00 58 1018.8
20260504172408 23 188 6.4 11.3 0.00 0.00 0.00 55 1018.8
20260504171905 22 195 4.8 11.3 0.00 0.00 0.00 53 1018.9
20260504171402 22 182 8.0 14.5 0.00 0.00 0.00 54 1018.9
20260504170859 22 187 8.0 11.3 0.00 0.00 0.00 56 1019.0
20260504170355 22 188 14.5 14.5 0.00 0.00 0.00 60 1018.9
20260504160314 20 189 11.3 12.9 0.00 0.00 0.00 59 1019.8
20260504150739 19 190 6.4 9.7 0.00 0.00 0.00 59 1020.5
20260504150236 19 202 1.6 4.8 0.00 0.00 0.00 58 1020.8
20260504141205 17 172 3.2 4.8 0.00 0.00 0.00 62 1021.0
20260504140703 16 187 3.2 4.8 0.00 0.00 0.00 65 1021.1
20260504140158 16 175 4.8 6.4 0.00 0.00 0.00 65 1021.2
20260504130626 15 162 1.6 6.4 0.00 0.00 0.00 70 1021.2
20260504130123 13 180 4.8 6.4 0.00 0.00 0.00 72 1021.1
20260504110514 8 296 3.2 4.8 0.00 0.00 0.00 97 1020.5
20260504100436 7 296 3.2 6.4 0.00 0.00 0.00 95 1020.5
20260504081829 8 294 3.2 6.4 0.00 0.00 0.00 92 1020.6
20260504081326 8 297 4.8 4.8 0.00 0.00 0.00 93 1020.4
20260504080822 8 295 3.2 6.4 0.00 0.00 0.00 92 1020.4
20260504080319 8 288 3.2 4.8 0.00 0.00 0.00 92 1020.4
20260504070246 9 299 3.2 4.8 0.00 0.00 0.00 90 1020.4
20260504060207 10 304 3.2 6.4 0.00 0.00 0.00 87 1021.0
20260504050635 11 297 3.2 4.8 0.00 0.00 0.00 79 1021.4
20260504050132 11 308 3.2 3.2 0.00 0.00 0.00 79 1021.0
20260504045629 11 301 3.2 4.8 0.00 0.00 0.00 79 1021.1
20260504045129 11 291 3.2 3.2 0.00 0.00 0.00 77 1021.0
20260504044627 12 301 3.2 3.2 0.00 0.00 0.00 76 1021.1
20260504044123 12 295 3.2 4.8 0.00 0.00 0.00 76 1021.3
20260504043621 12 304 3.2 4.8 0.00 0.00 0.00 74 1021.3
20260504043118 12 296 3.2 3.2 0.00 0.00 0.00 75 1021.1
20260504042615 12 305 1.6 3.2 0.00 0.00 0.00 75 1021.1
20260504042112 12 292 3.2 3.2 0.00 0.00 0.00 74 1021.0
20260504041607 12 290 3.2 3.2 0.00 0.00 0.00 74 1021.1
20260504041104 12 298 1.6 3.2 0.00 0.00 0.00 76 1021.4
20260504040601 12 296 1.6 3.2 0.00 0.00 0.00 75 1021.1
20260504040058 12 286 3.2 3.2 0.00 0.00 0.00 74 1021.3
20260504035555 12 282 3.2 4.8 0.00 0.00 0.00 75 1021.0
20260504035051 13 275 1.6 3.2 0.00 0.00 0.00 74 1021.3
20260504034549 13 283 1.6 3.2 0.00 0.00 0.00 73 1021.1
20260504034045 13 302 0.0 3.2 0.00 0.00 0.00 70 1021.2
20260504033544 13 293 1.6 3.2 0.00 0.00 0.00 73 1021.1
20260504033041 13 222 1.6 3.2 0.00 0.00 0.00 73 1021.0
20260504032538 13 209 1.6 3.2 0.00 0.00 0.00 71 1021.1
20260504032034 13 265 1.6 4.8 0.00 0.00 0.00 73 1021.1
20260504031531 13 267 1.6 3.2 0.00 0.00 0.00 74 1021.0
20260504031027 12 289 1.6 3.2 0.00 0.00 0.00 75 1021.0
20260504030525 12 281 3.2 3.2 0.00 0.00 0.00 77 1021.0
20260504030021 12 294 3.2 3.2 0.00 0.00 0.00 76 1021.1
20260504025518 12 294 3.2 4.8 0.00 0.00 0.00 74 1020.7
20260504025015 12 294 3.2 3.2 0.00 0.00 0.00 74 1020.8
20260504024512 12 279 3.2 4.8 0.00 0.00 0.00 75 1020.7
20260504024009 12 294 3.2 4.8 0.00 0.00 0.00 73 1020.5
20260504023505 12 295 3.2 3.2 0.00 0.00 0.00 75 1020.6
20260504023001 12 281 3.2 4.8 0.00 0.00 0.00 73 1020.6
20260504022457 12 292 3.2 4.8 0.00 0.00 0.00 75 1020.7
20260504021954 12 281 3.2 4.8 0.00 0.00 0.00 74 1020.7
20260504021452 12 278 3.2 4.8 0.00 0.00 0.00 75 1020.5
20260504020948 12 266 3.2 3.2 0.00 0.00 0.00 74 1020.7
20260504020445 12 291 4.8 4.8 0.00 0.00 0.00 74 1020.5
20260504015942 13 293 3.2 3.2 0.00 0.00 0.00 74 1020.6
20260504015438 13 284 3.2 6.4 0.00 0.00 0.00 75 1020.7
20260504014934 13 293 4.8 4.8 0.00 0.00 0.00 73 1020.5
20260504014430 13 289 3.2 3.2 0.00 0.00 0.00 73 1020.6
20260504013927 13 286 3.2 4.8 0.00 0.00 0.00 72 1020.6
20260504013426 13 307 3.2 4.8 0.00 0.00 0.00 73 1020.6
20260504012921 13 292 3.2 4.8 0.00 0.00 0.00 74 1020.4
20260504012420 13 290 3.2 4.8 0.00 0.00 0.00 72 1020.3
20260504011917 13 288 3.2 4.8 0.00 0.00 0.00 72 1020.1
20260504011413 13 289 3.2 4.8 0.00 0.00 0.00 72 1020.4
20260504010909 13 286 3.2 4.8 0.00 0.00 0.00 71 1020.1
20260504010405 13 291 3.2 4.8 0.00 0.00 0.00 70 1020.2
20260504005902 14 290 3.2 4.8 0.00 0.00 0.00 72 1020.2
20260504005358 14 295 3.2 4.8 0.00 0.00 0.00 71 1020.1
20260504004856 15 282 3.2 3.2 0.00 0.00 0.00 72 1019.9
20260504004353 15 276 3.2 3.2 0.00 0.00 0.00 72 1020.0
20260504003850 15 277 3.2 4.8 0.00 0.00 0.00 70 1019.9
20260504003347 15 295 3.2 4.8 0.00 0.00 0.00 69 1019.9
20260504002843 15 280 3.2 3.2 0.00 0.00 0.00 69 1019.9
20260504002340 15 290 3.2 3.2 0.00 0.00 0.00 68 1020.1
20260504001838 16 286 1.6 3.2 0.00 0.00 0.00 67 1019.8
20260504001335 16 288 3.2 3.2 0.00 0.00 0.00 69 1020.0
20260504000832 16 285 3.2 3.2 0.00 0.00 0.00 64 1020.0
20260504000329 16 288 3.2 3.2 0.00 0.00 0.00 66 1020.0
20260503235826 17 289 1.6 3.2 0.00 0.00 0.00 64 1019.9
20260503235324 17 270 1.6 4.8 0.00 0.00 0.00 64 1020.1
20260503234821 17 279 3.2 3.2 0.00 0.00 0.00 57 1019.8
20260503234319 18 283 3.2 3.2 0.00 0.00 0.00 52 1020.0
20260503233816 18 181 1.6 3.2 0.00 0.00 0.00 51 1020.2